]idnight River — HP7399 — position and weather

sailwx.info

Track history (hours):
 
Tides and Currents Weather Stations Pressure Air Temp Water Temp Dewpoint Dewpoint Depression Visibility Wind Speed Wind Dir Waves Ship Positions

]idnight River

Last reported at 2014-Oct-30 22:33 UTC. Time now 2014-Nov-01 10:19 UTC.
Position N 18°09' W 063°41'.

Type: Ship. MMSI: 352319000.

Date/timePositionNaut miles runAvg speedWind from/ knotsBaromVisibWave heightAir tempDewpointWater temp
2014-Oct-30 22:33N 18°09' W 063°41'9 9.1
2014-Oct-30 21:33N 18°08' W 063°32'9 8.9
2014-Oct-30 20:32N 18°07' W 063°22'9 9.1
2014-Oct-30 19:33N 18°06' W 063°13'8 7.4
2014-Oct-30 18:31N 18°05' W 063°05'0 0.0
2014-Oct-30 17:33N 18°05' W 063°05'5 0.5
2014-Oct-30 08:27N 18°01' W 063°06'5 5.4
2014-Oct-30 07:33N 18°05' W 063°08'2 2.5
2014-Oct-30 06:33N 18°05' W 063°05'0 0.0
2014-Oct-30 05:33N 18°05' W 063°05'0 0.0
2014-Oct-30 04:32N 18°05' W 063°05'0 0.0
2014-Oct-30 03:32N 18°05' W 063°05'2 2.0
2014-Oct-30 02:33N 18°05' W 063°07'10 9.6
2014-Oct-30 01:33N 18°03' W 063°17'9 9.3
2014-Oct-30 00:33N 18°01' W 063°26'9 9.2
2014-Oct-29 23:33N 17°58' W 063°36'3 0.2
2014-Oct-29 02:04N 17°59' W 063°32'5 9.1
2014-Oct-29 01:33N 18°00' W 063°28'9 9.1
2014-Oct-29 00:32N 18°03' W 063°18'9 9.6
2014-Oct-28 23:33N 18°05' W 063°09'3 3.4
2014-Oct-28 22:32N 18°05' W 063°05'0 0.0
2014-Oct-28 21:32N 18°05' W 063°05'0 0.0
2014-Oct-28 20:34N 18°05' W 063°05'0 0.0
2014-Oct-28 19:33N 18°05' W 063°05'1 1.4
2014-Oct-28 18:33N 18°06' W 063°05'9 1.0
2014-Oct-28 09:09N 17°58' W 063°00'6 9.1
2014-Oct-28 08:31N 18°01' W 063°06'5 4.7
2014-Oct-28 07:34N 18°05' W 063°07'2 1.8
2014-Oct-28 06:33N 18°05' W 063°05'0 0.0
2014-Oct-28 05:32N 18°05' W 063°05'0 0.0
2014-Oct-28 04:33N 18°05' W 063°05'0 0.0
2014-Oct-28 03:33N 18°05' W 063°05'0 0.0
2014-Oct-28 02:33N 18°05' W 063°05'0 0.0
2014-Oct-28 01:31N 18°05' W 063°05'0 0.0
2014-Oct-28 00:31N 18°05' W 063°05'0 0.0
2014-Oct-27 23:33N 18°05' W 063°05'0 0.0
2014-Oct-27 22:32N 18°05' W 063°05'7 6.8
2014-Oct-27 21:32N 18°06' W 063°12'9 9.2
2014-Oct-27 20:33N 18°07' W 063°22'9 9.1
2014-Oct-27 19:33N 18°08' W 063°31'10 9.3
2014-Oct-27 18:30N 18°09' W 063°41'6 0.2
2014-Oct-26 06:07N 18°09' W 063°35'6 9.8
2014-Oct-26 05:32N 18°08' W 063°29'9 9.4
2014-Oct-26 04:32N 18°07' W 063°20'9 9.3
2014-Oct-26 03:33N 18°06' W 063°10'5 4.6
2014-Oct-26 02:33N 18°05' W 063°05'0 0.0
2014-Oct-26 01:33N 18°05' W 063°05'0 0.0
2014-Oct-26 00:33N 18°05' W 063°05'0 0.0
2014-Oct-25 23:32N 18°05' W 063°05'0 0.0
2014-Oct-25 22:32N 18°05' W 063°05'0 0.0
2014-Oct-25 21:33N 18°05' W 063°05'0 0.0
2014-Oct-25 20:33N 18°05' W 063°05'0 0.0
2014-Oct-25 19:32N 18°05' W 063°05'0 0.0
2014-Oct-25 18:33N 18°05' W 063°05'5 0.4
2014-Oct-25 07:32N 18°05' W 063°10'5 4.1
2014-Oct-25 06:25N 18°05' W 063°05'0 0.0
2014-Oct-25 05:32N 18°05' W 063°05'0 0.0
2014-Oct-25 04:26N 18°05' W 063°05'0 0.0
2014-Oct-25 03:27N 18°05' W 063°05'0 0.0
2014-Oct-25 02:32N 18°05' W 063°05'0 0.0
2014-Oct-25 01:31N 18°05' W 063°05'0 0.0
2014-Oct-25 00:16N 18°05' W 063°05'0 0.0
2014-Oct-24 23:29N 18°05' W 063°05'0 0.0
2014-Oct-24 21:33N 18°05' W 063°05'0 0.0
2014-Oct-24 20:30N 18°05' W 063°05'0 0.0
2014-Oct-24 19:31N 18°05' W 063°05'0 0.0
2014-Oct-24 18:32N 18°05' W 063°05'0 0.0
2014-Oct-24 17:26N 18°05' W 063°05'0 0.0
2014-Oct-24 16:33N 18°05' W 063°05'0 0.0
2014-Oct-24 15:25N 18°05' W 063°05'0 0.0
2014-Oct-24 14:32N 18°05' W 063°05'0 0.0
2014-Oct-24 13:33N 18°05' W 063°05'0 0.0
2014-Oct-24 12:23N 18°05' W 063°05'0 0.0
2014-Oct-24 11:12N 18°05' W 063°05'0 0.0
2014-Oct-24 10:26N 18°05' W 063°05'0 0.0
2014-Oct-24 09:32N 18°05' W 063°05'0 0.0
2014-Oct-24 08:27N 18°05' W 063°05'0 0.0
2014-Oct-24 07:30N 18°05' W 063°05'0 0.0
2014-Oct-24 06:29N 18°05' W 063°05'0 0.0
2014-Oct-24 05:22N 18°05' W 063°05'0 0.0
2014-Oct-24 04:30N 18°05' W 063°05'0 0.0
2014-Oct-24 03:28N 18°05' W 063°05'0 0.0
2014-Oct-24 02:32N 18°05' W 063°05'0 0.0
2014-Oct-24 01:27N 18°05' W 063°05'0 0.0
2014-Oct-24 00:24N 18°05' W 063°05'0 0.0
2014-Oct-23 23:29N 18°05' W 063°05'0 0.0
2014-Oct-23 22:29N 18°05' W 063°05'0 0.0
2014-Oct-23 21:09N 18°05' W 063°05'0 0.0
2014-Oct-23 20:32N 18°05' W 063°05'0 0.5
2014-Oct-23 19:33N 18°05' W 063°05'5 0.5
2014-Oct-23 09:24N 18°01' W 063°05'6 6.8
2014-Oct-23 08:33N 18°05' W 063°09'4 3.4
2014-Oct-23 07:31N 18°05' W 063°05'0 0.0
2014-Oct-23 06:31N 18°05' W 063°05'0 0.0
2014-Oct-23 05:31N 18°05' W 063°05'0 0.0
2014-Oct-23 04:28N 18°05' W 063°05'0 0.0
2014-Oct-23 03:29N 18°05' W 063°05'7 6.7
2014-Oct-23 02:28N 18°00' W 063°11'1110.1
2014-Oct-23 01:26N 17°50' W 063°13'910.1
2014-Oct-23 00:33N 17°42' W 063°15'11 0.6
2014-Oct-22 07:33N 17°48' W 063°06'10 9.5
2014-Oct-22 06:32N 17°57' W 063°08'8 7.8
2014-Oct-22 05:31N 18°05' W 063°08'3 3.1
2014-Oct-22 04:33N 18°05' W 063°05'0 0.0
2014-Oct-22 03:32N 18°05' W 063°05'0 0.0
2014-Oct-22 02:33N 18°05' W 063°05'0 0.0
2014-Oct-22 01:33N 18°05' W 063°05'0 0.0
2014-Oct-22 00:26N 18°05' W 063°05'0 0.0
2014-Oct-21 23:26N 18°05' W 063°05'3 3.0
2014-Oct-21 22:33N 18°05' W 063°08'8 8.0
2014-Oct-21 21:33N 17°57' W 063°08'1010.0
2014-Oct-21 20:31N 17°48' W 063°03'12 0.9
2014-Oct-21 06:30N 17°39' W 063°13'  
Track history (hours):
 
Tides and Currents Weather Stations Pressure Air Temp Water Temp Dewpoint Dewpoint Depression Visibility Wind Speed Wind Dir Waves Ship Positions

]idnight River

Last reported at 2014-Oct-30 22:33 UTC. Time now 2014-Nov-01 10:19 UTC.
Position N 18°09' W 063°41'.

Type: Ship. MMSI: 352319000.

Date/timePositionNaut miles runAvg speedWind from/ knotsBaromVisibWave heightAir tempDewpointWater temp
2014-Oct-30 22:33N 18°09' W 063°41'9 9.1
2014-Oct-30 21:33N 18°08' W 063°32'9 8.9
2014-Oct-30 20:32N 18°07' W 063°22'9 9.1
2014-Oct-30 19:33N 18°06' W 063°13'8 7.4
2014-Oct-30 18:31N 18°05' W 063°05'0 0.0
2014-Oct-30 17:33N 18°05' W 063°05'5 0.5
2014-Oct-30 08:27N 18°01' W 063°06'5 5.4
2014-Oct-30 07:33N 18°05' W 063°08'2 2.5
2014-Oct-30 06:33N 18°05' W 063°05'0 0.0
2014-Oct-30 05:33N 18°05' W 063°05'0 0.0
2014-Oct-30 04:32N 18°05' W 063°05'0 0.0
2014-Oct-30 03:32N 18°05' W 063°05'2 2.0
2014-Oct-30 02:33N 18°05' W 063°07'10 9.6
2014-Oct-30 01:33N 18°03' W 063°17'9 9.3
2014-Oct-30 00:33N 18°01' W 063°26'9 9.2
2014-Oct-29 23:33N 17°58' W 063°36'3 0.2
2014-Oct-29 02:04N 17°59' W 063°32'5 9.1
2014-Oct-29 01:33N 18°00' W 063°28'9 9.1
2014-Oct-29 00:32N 18°03' W 063°18'9 9.6
2014-Oct-28 23:33N 18°05' W 063°09'3 3.4
2014-Oct-28 22:32N 18°05' W 063°05'0 0.0
2014-Oct-28 21:32N 18°05' W 063°05'0 0.0
2014-Oct-28 20:34N 18°05' W 063°05'0 0.0
2014-Oct-28 19:33N 18°05' W 063°05'1 1.4
2014-Oct-28 18:33N 18°06' W 063°05'9 1.0
2014-Oct-28 09:09N 17°58' W 063°00'6 9.1
2014-Oct-28 08:31N 18°01' W 063°06'5 4.7
2014-Oct-28 07:34N 18°05' W 063°07'2 1.8
2014-Oct-28 06:33N 18°05' W 063°05'0 0.0
2014-Oct-28 05:32N 18°05' W 063°05'0 0.0
2014-Oct-28 04:33N 18°05' W 063°05'0 0.0
2014-Oct-28 03:33N 18°05' W 063°05'0 0.0
2014-Oct-28 02:33N 18°05' W 063°05'0 0.0
2014-Oct-28 01:31N 18°05' W 063°05'0 0.0
2014-Oct-28 00:31N 18°05' W 063°05'0 0.0
2014-Oct-27 23:33N 18°05' W 063°05'0 0.0
2014-Oct-27 22:32N 18°05' W 063°05'7 6.8
2014-Oct-27 21:32N 18°06' W 063°12'9 9.2
2014-Oct-27 20:33N 18°07' W 063°22'9 9.1
2014-Oct-27 19:33N 18°08' W 063°31'10 9.3
2014-Oct-27 18:30N 18°09' W 063°41'6 0.2
2014-Oct-26 06:07N 18°09' W 063°35'6 9.8
2014-Oct-26 05:32N 18°08' W 063°29'9 9.4
2014-Oct-26 04:32N 18°07' W 063°20'9 9.3
2014-Oct-26 03:33N 18°06' W 063°10'5 4.6
2014-Oct-26 02:33N 18°05' W 063°05'0 0.0
2014-Oct-26 01:33N 18°05' W 063°05'0 0.0
2014-Oct-26 00:33N 18°05' W 063°05'0 0.0
2014-Oct-25 23:32N 18°05' W 063°05'0 0.0
2014-Oct-25 22:32N 18°05' W 063°05'0 0.0
2014-Oct-25 21:33N 18°05' W 063°05'0 0.0
2014-Oct-25 20:33N 18°05' W 063°05'0 0.0
2014-Oct-25 19:32N 18°05' W 063°05'0 0.0
2014-Oct-25 18:33N 18°05' W 063°05'5 0.4
2014-Oct-25 07:32N 18°05' W 063°10'5 4.1
2014-Oct-25 06:25N 18°05' W 063°05'0 0.0
2014-Oct-25 05:32N 18°05' W 063°05'0 0.0
2014-Oct-25 04:26N 18°05' W 063°05'0 0.0
2014-Oct-25 03:27N 18°05' W 063°05'0 0.0
2014-Oct-25 02:32N 18°05' W 063°05'0 0.0
2014-Oct-25 01:31N 18°05' W 063°05'0 0.0
2014-Oct-25 00:16N 18°05' W 063°05'0 0.0
2014-Oct-24 23:29N 18°05' W 063°05'0 0.0
2014-Oct-24 21:33N 18°05' W 063°05'0 0.0
2014-Oct-24 20:30N 18°05' W 063°05'0 0.0
2014-Oct-24 19:31N 18°05' W 063°05'0 0.0
2014-Oct-24 18:32N 18°05' W 063°05'0 0.0
2014-Oct-24 17:26N 18°05' W 063°05'0 0.0
2014-Oct-24 16:33N 18°05' W 063°05'0 0.0
2014-Oct-24 15:25N 18°05' W 063°05'0 0.0
2014-Oct-24 14:32N 18°05' W 063°05'0 0.0
2014-Oct-24 13:33N 18°05' W 063°05'0 0.0
2014-Oct-24 12:23N 18°05' W 063°05'0 0.0
2014-Oct-24 11:12N 18°05' W 063°05'0 0.0
2014-Oct-24 10:26N 18°05' W 063°05'0 0.0
2014-Oct-24 09:32N 18°05' W 063°05'0 0.0
2014-Oct-24 08:27N 18°05' W 063°05'0 0.0
2014-Oct-24 07:30N 18°05' W 063°05'0 0.0
2014-Oct-24 06:29N 18°05' W 063°05'0 0.0
2014-Oct-24 05:22N 18°05' W 063°05'0 0.0
2014-Oct-24 04:30N 18°05' W 063°05'0 0.0
2014-Oct-24 03:28N 18°05' W 063°05'0 0.0
2014-Oct-24 02:32N 18°05' W 063°05'0 0.0
2014-Oct-24 01:27N 18°05' W 063°05'0 0.0
2014-Oct-24 00:24N 18°05' W 063°05'0 0.0
2014-Oct-23 23:29N 18°05' W 063°05'0 0.0
2014-Oct-23 22:29N 18°05' W 063°05'0 0.0
2014-Oct-23 21:09N 18°05' W 063°05'0 0.0
2014-Oct-23 20:32N 18°05' W 063°05'0 0.5
2014-Oct-23 19:33N 18°05' W 063°05'5 0.5
2014-Oct-23 09:24N 18°01' W 063°05'6 6.8
2014-Oct-23 08:33N 18°05' W 063°09'4 3.4
2014-Oct-23 07:31N 18°05' W 063°05'0 0.0
2014-Oct-23 06:31N 18°05' W 063°05'0 0.0
2014-Oct-23 05:31N 18°05' W 063°05'0 0.0
2014-Oct-23 04:28N 18°05' W 063°05'0 0.0
2014-Oct-23 03:29N 18°05' W 063°05'7 6.7
2014-Oct-23 02:28N 18°00' W 063°11'1110.1
2014-Oct-23 01:26N 17°50' W 063°13'910.1
2014-Oct-23 00:33N 17°42' W 063°15'11 0.6
2014-Oct-22 07:33N 17°48' W 063°06'10 9.5
2014-Oct-22 06:32N 17°57' W 063°08'8 7.8
2014-Oct-22 05:31N 18°05' W 063°08'3 3.1
2014-Oct-22 04:33N 18°05' W 063°05'0 0.0
2014-Oct-22 03:32N 18°05' W 063°05'0 0.0
2014-Oct-22 02:33N 18°05' W 063°05'0 0.0
2014-Oct-22 01:33N 18°05' W 063°05'0 0.0
2014-Oct-22 00:26N 18°05' W 063°05'0 0.0
2014-Oct-21 23:26N 18°05' W 063°05'3 3.0
2014-Oct-21 22:33N 18°05' W 063°08'8 8.0
2014-Oct-21 21:33N 17°57' W 063°08'1010.0
2014-Oct-21 20:31N 17°48' W 063°03'12 0.9
2014-Oct-21 06:30N 17°39' W 063°13'  

Dump ship's entire track history